Location: Poughquag
(41.6090°N, 73.6820°W)
Time: 14:53:58
(UTC-05:00)

Tiangong 2 - Visible Passes

Search period start: 19 November 2018 00:00
Search period end: 29 November 2018 00:00
Orbit: 382 x 393 km, 42.8° (Epoch: 19 November)

Date Brightness Start Highest point End Pass type
(mag) Time Alt. Az. Time Alt. Az. Time Alt. Az.
23 Nov 4.0 05:59:10 10° S 06:01:20 17° SSE 06:03:31 10° ESE visible
25 Nov 3.0 05:37:55 10° SW 05:40:43 29° SSE 05:43:33 10° E visible
26 Nov 3.6 04:42:11 18° SSE 04:42:16 18° SSE 04:44:31 10° ESE visible
26 Nov 1.3 06:15:33 10° WSW 06:18:45 71° SSE 06:21:56 10° E visible
27 Nov 1.9 05:19:08 33° SSW 05:20:10 47° SSE 05:23:16 10° E visible
28 Nov 4.2 04:23:36 16° E 04:23:36 16° E 04:24:29 10° E visible
28 Nov 1.0 05:55:54 17° W 05:58:17 84° N 06:01:29 10° ENE visible
